Regional Weather Roundup
Issued by NWS

Home | Current Version | Previous Version | Text Only | Print | Product List | Glossary On
Versions: 1 2 3 4 5 6 7 8 9 10 11 12 13 14 15 16 17 18 19 20 21 22 23 24 25 26 27 28 29 30 31 32 33 34 35 36 37 38 39 40 41 42 43 44 45 46 47 48 49 50
659
ASUS44 KJAN 270210
RWRMS

MISSISSIPPI HOURLY WEATHER ROUNDUP
NATIONAL WEATHER SERVICE JACKSON MS
800 PM CST THU FEB 26 2015

NOTE: "FAIR: INDICATES FEW OR NO CLOUDS BELOW 12,000 FEET WITH NO
SIGNIFICANT WEATHER AND/OR OBSTRUCTIONS TO VISIBILITY.

MSZ001>002-007>008-010>013-018>021-025>028-034>036-270300-
NORTHWEST MISSISSIPPI

CITY           SKY/WX    TMP DP  RH WIND       PRES   REMARKS
CLARKSDALE     CLOUDY    32  25  74 N14       30.37R WCI  22
CLEVELAND      CLOUDY    32  28  86 N15       30.35R WCI  22
GREENWOOD        N/A    N/A N/A N/A MISG      30.32R
GREENVILLE     CLOUDY    33  26  75 N13G23    30.35R WCI  24
OLIVE BRANCH   CLOUDY    28  23  80 N12       30.34R WCI  18
OXFORD         CLOUDY    28  23  80 N13G22    30.32R WCI  18
TUNICA         CLOUDY    32  25  74 N13G18    30.37R WCI  22
$$

MSZ003>006-009-014>017-022>024-029>033-037>039-270300-
NORTHEAST MISSISSIPPI

CITY           SKY/WX    TMP DP  RH WIND       PRES   REMARKS
COLUMBUS AFB   NOT AVBL
CORINTH        CLOUDY    32  25  74 NW13G20   30.28R WCI  22
GOLDN TRIANGLE CLOUDY    34  28  80 W5        30.25R WCI  30
STARKVILLE     CLOUDY    34  32  93 W3        30.27R
TUPELO         CLOUDY    34  26  72 N18       30.27R WCI  23
$$

MSZ040-058-270300-
CENTRAL MISSISSIPPI

CITY           SKY/WX    TMP DP  RH WIND       PRES   REMARKS
JACKSON INTL   CLOUDY    34  29  82 N10       30.29R WCI  26
JACKSON HAWKNS CLOUDY    34  29  82 N6        30.30R WCI  29
MERIDIAN KEY   CLEAR     36  29  75 N13       30.25R WCI  27
MERIDIAN NAS   PTCLDY    35  29  78 NW8       30.26R WCI  29
VICKSBURG      CLOUDY    36  30  79 N10       30.34R WCI  28
$$

MSZ059>079-270300-
SOUTH MISSISSIPPI

CITY           SKY/WX    TMP DP  RH WIND       PRES   REMARKS
BROOKHAVEN     CLOUDY    36  32  87 N12       30.27R WCI  27
HATTIESBURG    PTCLDY    43  33  68 N13       30.22R
MCCOMB         CLEAR     38  30  73 N14G22    30.23R WCI  30
NATCHEZ        CLOUDY    36  28  75 N15       30.31R WCI  26
PINE BELT      PTCLDY    39  30  70 N12G18    30.22R WCI  32
$$

MSZ080>082-270300-
COASTAL MISSISSIPPI

CITY           SKY/WX    TMP DP  RH WIND       PRES   REMARKS
BAY ST LOUIS   CLEAR     39  34  81 VRB3      30.20R
BILOXI         NOT AVBL
PASCAGOULA     CLOUDY    43  35  73 CALM      30.17R
GULFPORT       MOCLDY    44  34  67 N5        30.18R
$$



USA.gov is the U.S. government's official web portal to all federal, state and local government web resources and services.